| time (UTC) | temp C | wind direction | speed KPH | gust KPH | rain 1hr cm | rain 24hr cm | rain mn cm | humidity % | barometer mb |
| 20260505071557 | 16 | 185 | 3.2 | 11.3 | 0.00 | 0.00 | 0.00 | 78 | 1005.8 |
| 20260505071050 | 16 | 204 | 3.2 | 9.7 | 0.00 | 0.00 | 0.00 | 78 | 1005.8 |
| 20260505070552 | 16 | 200 | 4.8 | 9.7 | 0.00 | 0.00 | 0.00 | 78 | 1005.9 |
| 20260505070058 | 16 | 210 | 3.2 | 9.7 | 0.00 | 0.00 | 0.00 | 78 | 1005.8 |
| 20260505065552 | 16 | 194 | 4.8 | 11.3 | 0.00 | 0.00 | 0.00 | 78 | 1005.8 |
| 20260505065049 | 16 | 208 | 4.8 | 11.3 | 0.00 | 0.00 | 0.00 | 78 | 1005.9 |
| 20260505064555 | 16 | 195 | 3.2 | 11.3 | 0.00 | 0.00 | 0.00 | 78 | 1006.0 |
| 20260505064049 | 16 | 199 | 4.8 | 11.3 | 0.00 | 0.00 | 0.00 | 78 | 1006.0 |
| 20260505063549 | 16 | 198 | 3.2 | 11.3 | 0.00 | 0.00 | 0.00 | 78 | 1006.0 |
| 20260505063105 | 16 | 172 | 3.2 | 11.3 | 0.00 | 0.00 | 0.00 | 77 | 1005.9 |
| 20260505062551 | 16 | 197 | 3.2 | 12.9 | 0.00 | 0.00 | 0.00 | 77 | 1005.7 |
| 20260505062052 | 16 | 216 | 4.8 | 12.9 | 0.00 | 0.00 | 0.00 | 77 | 1005.8 |
| 20260505061602 | 16 | 203 | 4.8 | 12.9 | 0.00 | 0.00 | 0.00 | 77 | 1005.9 |
| 20260505061049 | 16 | 187 | 6.4 | 12.9 | 0.00 | 0.00 | 0.00 | 77 | 1005.8 |
| 20260505060550 | 16 | 200 | 4.8 | 12.9 | 0.00 | 0.00 | 0.00 | 77 | 1005.7 |
| 20260505060058 | 16 | 195 | 4.8 | 12.9 | 0.00 | 0.00 | 0.00 | 77 | 1005.9 |
| 20260505055550 | 16 | 164 | 6.4 | 12.9 | 0.00 | 0.00 | 0.00 | 77 | 1005.8 |
| 20260505055053 | 16 | 187 | 4.8 | 12.9 | 0.00 | 0.00 | 0.00 | 77 | 1005.9 |
| 20260505054557 | 16 | 164 | 4.8 | 12.9 | 0.00 | 0.00 | 0.00 | 76 | 1005.9 |
| 20260505054048 | 16 | 200 | 6.4 | 12.9 | 0.00 | 0.00 | 0.00 | 77 | 1006.1 |
| 20260505053550 | 16 | 191 | 4.8 | 16.1 | 0.00 | 0.00 | 0.00 | 77 | 1006.4 |
| 20260505053051 | 16 | 187 | 6.4 | 16.1 | 0.00 | 0.00 | 0.00 | 76 | 1006.2 |
| 20260505052550 | 16 | 173 | 4.8 | 12.9 | 0.00 | 0.00 | 0.00 | 76 | 1006.2 |
| 20260505052051 | 16 | 192 | 4.8 | 12.9 | 0.00 | 0.00 | 0.00 | 76 | 1006.1 |
| 20260505051553 | 16 | 195 | 6.4 | 12.9 | 0.00 | 0.00 | 0.00 | 76 | 1006.2 |
| 20260505051050 | 16 | 215 | 4.8 | 11.3 | 0.00 | 0.00 | 0.00 | 76 | 1006.4 |
| 20260505050549 | 16 | 184 | 4.8 | 11.3 | 0.00 | 0.00 | 0.00 | 76 | 1006.4 |
| 20260505050124 | 16 | 195 | 6.4 | 11.3 | 0.00 | 0.00 | 0.00 | 76 | 1006.5 |
| 20260505041603 | 17 | 183 | 4.8 | 11.3 | 0.00 | 0.00 | 0.00 | 75 | 1007.1 |
| 20260505041050 | 17 | 174 | 4.8 | 11.3 | 0.00 | 0.00 | 0.00 | 75 | 1007.2 |
| 20260505040553 | 17 | 201 | 4.8 | 12.9 | 0.00 | 0.00 | 0.00 | 75 | 1007.2 |
| 20260505040059 | 17 | 166 | 3.2 | 12.9 | 0.00 | 0.00 | 0.00 | 74 | 1007.4 |
| 20260505035553 | 17 | 193 | 3.2 | 11.3 | 0.00 | 0.00 | 0.00 | 74 | 1007.4 |
| 20260505035049 | 17 | 185 | 3.2 | 11.3 | 0.00 | 0.00 | 0.00 | 74 | 1007.5 |
| 20260505034553 | 17 | 178 | 4.8 | 11.3 | 0.00 | 0.00 | 0.00 | 74 | 1007.5 |
| 20260505034052 | 17 | 190 | 4.8 | 9.7 | 0.00 | 0.00 | 0.00 | 74 | 1007.5 |
| 20260505033551 | 17 | 191 | 4.8 | 11.3 | 0.00 | 0.00 | 0.00 | 74 | 1007.5 |
| 20260505033052 | 17 | 194 | 3.2 | 11.3 | 0.00 | 0.00 | 0.00 | 74 | 1007.6 |
| 20260505032550 | 17 | 201 | 3.2 | 11.3 | 0.00 | 0.00 | 0.00 | 73 | 1007.6 |
| 20260505032055 | 17 | 185 | 3.2 | 9.7 | 0.00 | 0.00 | 0.00 | 73 | 1007.6 |
| 20260505031554 | 17 | 183 | 4.8 | 11.3 | 0.00 | 0.00 | 0.00 | 73 | 1007.5 |
| 20260505031049 | 17 | 189 | 4.8 | 11.3 | 0.00 | 0.00 | 0.00 | 73 | 1007.4 |
| 20260505030550 | 17 | 184 | 4.8 | 11.3 | 0.00 | 0.00 | 0.00 | 72 | 1007.4 |
| 20260505030055 | 17 | 180 | 4.8 | 9.7 | 0.00 | 0.00 | 0.00 | 72 | 1007.2 |
| 20260505025549 | 17 | 182 | 4.8 | 9.7 | 0.00 | 0.00 | 0.00 | 72 | 1007.2 |
| 20260505025049 | 17 | 189 | 4.8 | 9.7 | 0.00 | 0.00 | 0.00 | 71 | 1007.2 |
| 20260505024550 | 18 | 191 | 4.8 | 11.3 | 0.00 | 0.00 | 0.00 | 71 | 1007.1 |
| 20260505024050 | 18 | 175 | 4.8 | 11.3 | 0.00 | 0.00 | 0.00 | 70 | 1007.0 |
| 20260505023549 | 18 | 186 | 6.4 | 11.3 | 0.00 | 0.00 | 0.00 | 70 | 1007.0 |
| 20260505023054 | 18 | 188 | 4.8 | 11.3 | 0.00 | 0.00 | 0.00 | 70 | 1006.9 |
| 20260505022549 | 18 | 196 | 4.8 | 11.3 | 0.00 | 0.00 | 0.00 | 70 | 1006.9 |
| 20260505022052 | 18 | 222 | 4.8 | 11.3 | 0.00 | 0.00 | 0.00 | 69 | 1006.8 |
| 20260505021554 | 18 | 205 | 3.2 | 11.3 | 0.00 | 0.00 | 0.00 | 69 | 1006.7 |
| 20260505021049 | 18 | 194 | 3.2 | 9.7 | 0.00 | 0.00 | 0.00 | 69 | 1006.6 |
| 20260505020549 | 18 | 174 | 4.8 | 11.3 | 0.00 | 0.00 | 0.00 | 68 | 1006.6 |
| 20260505020050 | 18 | 180 | 4.8 | 11.3 | 0.00 | 0.00 | 0.00 | 68 | 1006.5 |
| 20260505015549 | 18 | 182 | 4.8 | 11.3 | 0.00 | 0.00 | 0.00 | 67 | 1006.5 |
| 20260505015051 | 19 | 190 | 4.8 | 11.3 | 0.00 | 0.00 | 0.00 | 67 | 1006.3 |
| 20260505014605 | 19 | 164 | 3.2 | 11.3 | 0.00 | 0.00 | 0.00 | 67 | 1006.2 |
| 20260505014050 | 19 | 179 | 3.2 | 9.7 | 0.00 | 0.00 | 0.00 | 67 | 1006.1 |
| 20260505013549 | 19 | 206 | 3.2 | 9.7 | 0.00 | 0.00 | 0.00 | 68 | 1006.1 |
| 20260505013055 | 19 | 195 | 3.2 | 9.7 | 0.00 | 0.00 | 0.00 | 67 | 1006.1 |
| 20260505012549 | 19 | 195 | 3.2 | 9.7 | 0.00 | 0.00 | 0.00 | 66 | 1006.1 |
| 20260505012049 | 19 | 181 | 3.2 | 9.7 | 0.00 | 0.00 | 0.00 | 66 | 1006.0 |
| 20260505011603 | 20 | 201 | 3.2 | 11.3 | 0.00 | 0.00 | 0.00 | 65 | 1005.9 |
| 20260505011050 | 20 | 191 | 3.2 | 11.3 | 0.00 | 0.00 | 0.00 | 64 | 1005.9 |
| 20260505010549 | 20 | 211 | 4.8 | 11.3 | 0.00 | 0.00 | 0.00 | 64 | 1005.7 |
| 20260505010056 | 20 | 190 | 3.2 | 9.7 | 0.00 | 0.00 | 0.00 | 62 | 1005.6 |
| 20260505005549 | 20 | 174 | 3.2 | 11.3 | 0.00 | 0.00 | 0.00 | 62 | 1005.6 |
| 20260505005050 | 20 | 195 | 3.2 | 11.3 | 0.00 | 0.00 | 0.00 | 61 | 1005.5 |
| 20260505004600 | 21 | 194 | 3.2 | 11.3 | 0.00 | 0.00 | 0.00 | 60 | 1005.4 |
| 20260505004048 | 21 | 188 | 6.4 | 11.3 | 0.00 | 0.00 | 0.00 | 60 | 1005.4 |
| 20260505003549 | 21 | 183 | 4.8 | 11.3 | 0.00 | 0.00 | 0.00 | 60 | 1005.3 |
| 20260505003057 | 21 | 201 | 4.8 | 11.3 | 0.00 | 0.00 | 0.00 | 60 | 1005.3 |
| 20260505002551 | 21 | 198 | 3.2 | 9.7 | 0.00 | 0.00 | 0.00 | 61 | 1005.4 |
| 20260505002050 | 21 | 203 | 4.8 | 9.7 | 0.00 | 0.00 | 0.00 | 60 | 1005.5 |
| 20260505001624 | 21 | 180 | 3.2 | 12.9 | 0.00 | 0.00 | 0.00 | 61 | 1005.5 |
| 20260505001049 | 22 | 199 | 4.8 | 19.3 | 0.00 | 0.00 | 0.00 | 59 | 1005.5 |
| 20260505000549 | 22 | 216 | 6.4 | 19.3 | 0.00 | 0.00 | 0.00 | 59 | 1005.5 |
| 20260505000135 | 22 | 225 | 8.0 | 19.3 | 0.00 | 0.00 | 0.00 | 58 | 1005.4 |
| 20260504235549 | 22 | 228 | 6.4 | 12.9 | 0.00 | 0.00 | 0.00 | 59 | 1005.3 |
| 20260504235049 | 22 | 216 | 4.8 | 12.9 | 0.00 | 0.00 | 0.00 | 61 | 1005.3 |
| 20260504234610 | 22 | 201 | 4.8 | 11.3 | 0.00 | 0.00 | 0.00 | 60 | 1005.3 |
| 20260504234049 | 22 | 192 | 4.8 | 12.9 | 0.00 | 0.00 | 0.00 | 58 | 1005.3 |
| 20260504233554 | 23 | 190 | 6.4 | 12.9 | 0.00 | 0.00 | 0.00 | 58 | 1005.2 |
| 20260504233105 | 23 | 165 | 3.2 | 12.9 | 0.00 | 0.00 | 0.00 | 57 | 1005.2 |
| 20260504232550 | 23 | 206 | 4.8 | 12.9 | 0.00 | 0.00 | 0.00 | 57 | 1005.3 |
| 20260504232048 | 23 | 195 | 3.2 | 14.5 | 0.00 | 0.00 | 0.00 | 53 | 1005.3 |
| 20260504231554 | 23 | 203 | 6.4 | 22.5 | 0.00 | 0.00 | 0.00 | 51 | 1005.3 |
| 20260504231049 | 24 | 195 | 9.7 | 29.0 | 0.00 | 0.00 | 0.00 | 51 | 1005.3 |
| 20260504230549 | 24 | 135 | 8.0 | 29.0 | 0.00 | 0.00 | 0.00 | 49 | 1005.4 |
| 20260504230054 | 24 | 245 | 11.3 | 29.0 | 0.00 | 0.00 | 0.00 | 50 | 1005.5 |
| 20260504225550 | 24 | 235 | 6.4 | 25.7 | 0.00 | 0.00 | 0.00 | 52 | 1005.5 |
| 20260504225051 | 25 | 235 | 8.0 | 25.7 | 0.00 | 0.00 | 0.00 | 49 | 1005.4 |
| 20260504224607 | 25 | 203 | 6.4 | 19.3 | 0.00 | 0.00 | 0.00 | 52 | 1005.4 |
| 20260504224052 | 25 | 224 | 9.7 | 20.9 | 0.00 | 0.00 | 0.00 | 50 | 1005.6 |
| 20260504223549 | 25 | 242 | 8.0 | 20.9 | 0.00 | 0.00 | 0.00 | 50 | 1005.5 |
| 20260504223058 | 25 | 207 | 9.7 | 25.7 | 0.00 | 0.00 | 0.00 | 50 | 1005.6 |
| 20260504222550 | 24 | 201 | 8.0 | 25.7 | 0.00 | 0.00 | 0.00 | 51 | 1005.7 |
| 20260504222049 | 24 | 220 | 9.7 | 33.8 | 0.00 | 0.00 | 0.00 | 50 | 1005.7 |
| 20260504221557 | 24 | 219 | 9.7 | 33.8 | 0.00 | 0.00 | 0.00 | 50 | 1005.7 |
| 20260504221049 | 25 | 239 | 8.0 | 20.9 | 0.00 | 0.00 | 0.00 | 50 | 1005.6 |
| 20260504220553 | 25 | 186 | 8.0 | 20.9 | 0.00 | 0.00 | 0.00 | 51 | 1005.7 |
| 20260504220100 | 25 | 192 | 9.7 | 22.5 | 0.00 | 0.00 | 0.00 | 52 | 1005.8 |
| 20260504215550 | 25 | 218 | 8.0 | 25.7 | 0.00 | 0.00 | 0.00 | 51 | 1005.8 |
| 20260504215053 | 25 | 242 | 8.0 | 25.7 | 0.00 | 0.00 | 0.00 | 49 | 1005.9 |
| 20260504214600 | 25 | 227 | 11.3 | 20.9 | 0.00 | 0.00 | 0.00 | 49 | 1005.9 |
| 20260504214049 | 25 | 233 | 8.0 | 24.1 | 0.00 | 0.00 | 0.00 | 51 | 1006.0 |
| 20260504213549 | 25 | 214 | 9.7 | 24.1 | 0.00 | 0.00 | 0.00 | 51 | 1006.1 |
| 20260504213119 | 25 | 199 | 8.0 | 24.1 | 0.00 | 0.00 | 0.00 | 46 | 1006.1 |
| 20260504212550 | 25 | 247 | 11.3 | 24.1 | 0.00 | 0.00 | 0.00 | 50 | 1006.1 |
| 20260504212052 | 25 | 177 | 8.0 | 16.1 | 0.00 | 0.00 | 0.00 | 48 | 1006.0 |
| 20260504211556 | 26 | 176 | 6.4 | 16.1 | 0.00 | 0.00 | 0.00 | 50 | 1006.2 |
| 20260504211050 | 26 | 213 | 6.4 | 16.1 | 0.00 | 0.00 | 0.00 | 51 | 1006.2 |
| 20260504210550 | 25 | 195 | 6.4 | 16.1 | 0.00 | 0.00 | 0.00 | 49 | 1006.1 |
| 20260504210058 | 25 | 186 | 8.0 | 16.1 | 0.00 | 0.00 | 0.00 | 50 | 1006.2 |
| 20260504205550 | 25 | 203 | 8.0 | 17.7 | 0.00 | 0.00 | 0.00 | 49 | 1006.3 |
| 20260504205050 | 25 | 260 | 6.4 | 19.3 | 0.00 | 0.00 | 0.00 | 53 | 1006.2 |
| 20260504204558 | 26 | 168 | 9.7 | 22.5 | 0.00 | 0.00 | 0.00 | 50 | 1006.4 |
| 20260504204051 | 26 | 228 | 9.7 | 22.5 | 0.00 | 0.00 | 0.00 | 49 | 1006.4 |
| 20260504203555 | 26 | 222 | 6.4 | 17.7 | 0.00 | 0.00 | 0.00 | 53 | 1006.5 |
| 20260504203112 | 26 | 194 | 9.7 | 17.7 | 0.00 | 0.00 | 0.00 | 51 | 1006.5 |
| 20260504202550 | 26 | 188 | 8.0 | 24.1 | 0.00 | 0.00 | 0.00 | 50 | 1006.7 |
| 20260504202048 | 26 | 201 | 8.0 | 24.1 | 0.00 | 0.00 | 0.00 | 48 | 1006.6 |
| 20260504201551 | 26 | 203 | 9.7 | 20.9 | 0.00 | 0.00 | 0.00 | 48 | 1006.8 |
| 20260504201050 | 26 | 196 | 8.0 | 25.7 | 0.00 | 0.00 | 0.00 | 50 | 1006.8 |
| 20260504200550 | 26 | 204 | 9.7 | 25.7 | 0.00 | 0.00 | 0.00 | 51 | 1006.9 |
| 20260504200052 | 26 | 233 | 9.7 | 19.3 | 0.00 | 0.00 | 0.00 | 47 | 1006.9 |
| 20260504195552 | 26 | 208 | 6.4 | 24.1 | 0.00 | 0.00 | 0.00 | 53 | 1006.9 |
| 20260504195051 | 26 | 205 | 11.3 | 24.1 | 0.00 | 0.00 | 0.00 | 48 | 1006.9 |
| 20260504194602 | 26 | 214 | 11.3 | 24.1 | 0.00 | 0.00 | 0.00 | 52 | 1007.0 |
| 20260504194050 | 26 | 226 | 11.3 | 22.5 | 0.00 | 0.00 | 0.00 | 51 | 1007.0 |
| 20260504193552 | 26 | 224 | 9.7 | 25.7 | 0.00 | 0.00 | 0.00 | 49 | 1007.1 |
| 20260504193059 | 26 | 203 | 9.7 | 25.7 | 0.00 | 0.00 | 0.00 | 49 | 1007.1 |
| 20260504192550 | 26 | 237 | 11.3 | 24.1 | 0.00 | 0.00 | 0.00 | 48 | 1007.1 |
| 20260504192049 | 26 | 222 | 9.7 | 29.0 | 0.00 | 0.00 | 0.00 | 52 | 1007.1 |
| 20260504191554 | 25 | 204 | 14.5 | 29.0 | 0.00 | 0.00 | 0.00 | 51 | 1007.1 |
| 20260504191049 | 26 | 219 | 8.0 | 27.4 | 0.00 | 0.00 | 0.00 | 50 | 1007.2 |
| 20260504190552 | 25 | 177 | 11.3 | 30.6 | 0.00 | 0.00 | 0.00 | 48 | 1007.1 |
| 20260504190114 | 26 | 218 | 9.7 | 30.6 | 0.00 | 0.00 | 0.00 | 52 | 1007.4 |
| 20260504185549 | 26 | 247 | 11.3 | 30.6 | 0.00 | 0.00 | 0.00 | 48 | 1007.3 |
| 20260504185049 | 26 | 201 | 6.4 | 19.3 | 0.00 | 0.00 | 0.00 | 53 | 1007.5 |
| 20260504184600 | 25 | 191 | 9.7 | 25.7 | 0.00 | 0.00 | 0.00 | 52 | 1007.4 |
| 20260504184050 | 25 | 244 | 8.0 | 29.0 | 0.00 | 0.00 | 0.00 | 51 | 1007.4 |
| 20260504183554 | 25 | 231 | 12.9 | 29.0 | 0.00 | 0.00 | 0.00 | 48 | 1007.5 |
| 20260504183055 | 25 | 203 | 9.7 | 25.7 | 0.00 | 0.00 | 0.00 | 51 | 1007.4 |
| 20260504182555 | 25 | 218 | 8.0 | 22.5 | 0.00 | 0.00 | 0.00 | 53 | 1007.4 |
| 20260504182051 | 25 | 214 | 8.0 | 27.4 | 0.00 | 0.00 | 0.00 | 53 | 1007.3 |
| 20260504181550 | 25 | 239 | 8.0 | 27.4 | 0.00 | 0.00 | 0.00 | 52 | 1007.5 |
| 20260504181049 | 25 | 241 | 6.4 | 25.7 | 0.00 | 0.00 | 0.00 | 54 | 1007.4 |
| 20260504180550 | 25 | 203 | 8.0 | 25.7 | 0.00 | 0.00 | 0.00 | 54 | 1007.5 |
| 20260504180056 | 25 | 201 | 11.3 | 25.7 | 0.00 | 0.00 | 0.00 | 53 | 1007.6 |
| 20260504175553 | 25 | 208 | 8.0 | 33.8 | 0.00 | 0.00 | 0.00 | 54 | 1007.6 |
| 20260504175049 | 25 | 245 | 12.9 | 33.8 | 0.00 | 0.00 | 0.00 | 53 | 1007.7 |
| 20260504174602 | 25 | 211 | 11.3 | 33.8 | 0.00 | 0.00 | 0.00 | 50 | 1007.6 |
| 20260504174050 | 25 | 228 | 11.3 | 17.7 | 0.00 | 0.00 | 0.00 | 54 | 1007.6 |
| 20260504173550 | 25 | 205 | 8.0 | 19.3 | 0.00 | 0.00 | 0.00 | 53 | 1007.6 |
| 20260504173058 | 24 | 249 | 11.3 | 20.9 | 0.00 | 0.00 | 0.00 | 54 | 1007.6 |
| 20260504172550 | 24 | 212 | 8.0 | 25.7 | 0.00 | 0.00 | 0.00 | 55 | 1007.7 |
| 20260504172053 | 24 | 252 | 12.9 | 25.7 | 0.00 | 0.00 | 0.00 | 54 | 1007.7 |
| 20260504171554 | 23 | 185 | 9.7 | 17.7 | 0.00 | 0.00 | 0.00 | 53 | 1007.7 |
| 20260504171054 | 23 | 191 | 9.7 | 17.7 | 0.00 | 0.00 | 0.00 | 54 | 1007.8 |
| 20260504170550 | 23 | 199 | 9.7 | 19.3 | 0.00 | 0.00 | 0.00 | 54 | 1007.8 |
| 20260504151050 | 20 | 240 | 11.3 | 27.4 | 0.00 | 0.00 | 0.00 | 58 | 1008.9 |
| 20260504150550 | 20 | 185 | 12.9 | 27.4 | 0.00 | 0.00 | 0.00 | 61 | 1008.9 |
| 20260504141049 | 17 | 195 | 9.7 | 25.7 | 0.00 | 0.00 | 0.00 | 65 | 1009.7 |
| 20260504140549 | 17 | 207 | 9.7 | 19.3 | 0.00 | 0.00 | 0.00 | 65 | 1009.7 |
| 20260504140107 | 17 | 186 | 8.0 | 25.7 | 0.00 | 0.00 | 0.00 | 65 | 1009.8 |
| 20260504130552 | 15 | 210 | 3.2 | 6.4 | 0.00 | 0.00 | 0.00 | 71 | 1009.9 |
| 20260504110552 | 13 | 197 | 1.6 | 6.4 | 0.00 | 0.00 | 0.00 | 74 | 1009.8 |
| 20260504110119 | 13 | 199 | 1.6 | 6.4 | 0.00 | 0.00 | 0.00 | 74 | 1009.7 |
| 20260504100549 | 13 | 184 | 1.6 | 4.8 | 0.00 | 0.00 | 0.00 | 72 | 1010.0 |
| 20260504090116 | 13 | 214 | 3.2 | 6.4 | 0.00 | 0.00 | 0.00 | 72 | 1010.3 |
| 20260504081600 | 14 | 204 | 3.2 | 11.3 | 0.00 | 0.00 | 0.00 | 72 | 1010.3 |
| 20260504081049 | 14 | 203 | 4.8 | 16.1 | 0.00 | 0.00 | 0.00 | 72 | 1010.3 |
| 20260504080554 | 13 | 201 | 3.2 | 16.1 | 0.00 | 0.00 | 0.00 | 72 | 1010.4 |